Back to catalog

STARLINK-31959

AliveCommunicationsVLEO
NORAD 59925·PAYLOAD·🇺🇸 United States

Launched Jun 1, 2024 from Cape Canaveral Space Force Station

Loading…

Next Passes (next 24 hours)

TLE

FreshSource: CelesTrak SupGP

Epoch: Sep 14, 2026, 22:35 UTC

1 59925C 24106D   26257.94145833 -.00024040  00000+0 -87081-3 0  2577
2 59925  43.0038 339.8898 0001868 273.4630 310.6225 15.27586142    17

Track STARLINK-31959 in real time with AllMySat

Download on the App Store